This demonstration page uses our WeatherBlox Daily Observations layout. Learn more.

38.80484, -77.04692

Hourly Observations for September 19, 2016

Temp ( °F °C ) Dew Point ( °F °C ) Humidity (%) Winds ( mph kmh ) Pressure ( in mb ) Visibility ( mi km ) Precip ( " mm )
12:52 am 00:52 Mostly Cloudy 78 25.6 74 23.3 87 87 S 6 9 30 1016 10 16.0934 0 0
1:45 am 01:45 Cloudy 78 25.6 75 23.9 90 90 S 7 11 30 1016 10 16.0934 0 0
1:52 am 01:52 Cloudy 78 25.6 74 23.3 87 87 S 7 11 30 1016 10 16.0934 0 0
2:52 am 02:52 Mostly Cloudy 78 25.6 75 23.9 90 90 S 7 11 29.98 1015 10 16.0934 0 0
3:44 am 03:44 Cloudy 77 25 75 24 94 94 SSW 5 7 29.97 1015 10 16.0934 0 0
3:52 am 03:52 Cloudy 77 25 75 23.9 94 94 SSW 3 6 29.98 1015 10 16.0934 0 0.0254
4:49 am 04:49 Cloudy with Light Rain 77 25 75 24 94 94 S 5 7 29.97 1015 10 16.0934 0 0.0254
4:52 am 04:52 Cloudy with Light Rain 77 25 75 23.9 94 94 S 5 7 29.96 1015 10 16.0934 0 0.0254
4:54 am 04:54 Cloudy 77 25 75 24 94 94 S 6 9 29.97 1015 10 16.0934 0 0
5:25 am 05:25 Mostly Cloudy with Light Rain 77 25 76 24.4 96 96 SSW 6 9 29.97 1015 10 16.0934 0 0.0254
5:52 am 05:52 Cloudy with Light Rain 77 25 75 23.9 94 94 Calm 29.97 1015 10 16.0934 0 0.0254
6:52 am 06:52 Cloudy 78 25.6 74 23.3 87 87 SSW 5 7 29.99 1016 10 16.0934 0 0.0254
7:52 am 07:52 Cloudy 77 25 72 22.2 85 85 WNW 7 11 30 1016 10 16.0934 0 0
8:06 am 08:06 Cloudy 79 26 72 22 79 79 NW 9 15 30 1016 10 16.0934 0 0
8:52 am 08:52 Cloudy 77 25 73 22.8 88 88 N 9 15 30 1016 10 16.0934 0 0
9:25 am 09:25 Cloudy with Light Rain 77 25 73 22.8 88 88 NNW 13 20 30 1016 6 9.65604 0 0.0254
9:52 am 09:52 Cloudy with Light Rain 76 24.4 73 22.8 91 91 N 13 20 30.02 1017 7 11.26538 0 0.0254
10:52 am 10:52 Cloudy with Light Rain 73 23 72 22 94 94 NE 8 13 30.03 1017 4 6.43736 0 0
11:15 am 11:15 Cloudy with Rain 73 22.8 72 22.2 96 96 ENE 6 9 30.03 1017 3 4.82802 0.05 1.27
11:52 am 11:52 Cloudy with Light Rain 73 22.8 72 22.2 96 96 ENE 5 7 30.02 1017 6 9.65604 0.14 3.556
12:52 pm 12:52 Cloudy with Rain 73 22.8 72 22.2 96 96 SE 9 15 30.03 1017 6 9.65604 0.17 4.318
1:45 pm 13:45 Cloudy with Light Rain 74 23.3 72 22.2 94 94 NNE 6 9 30.03 1017 6 9.65604 0.03 0.762
1:52 pm 13:52 Cloudy with Light Rain 74 23.3 72 22.2 94 94 NNE 5 7 30.04 1017 6 9.65604 0.03 0.762
2:41 pm 14:41 Cloudy with Light Rain 74 23.3 73 22.8 97 97 NE 7 11 30 1016 9 14.48406 0.03 0.762
2:52 pm 14:52 Cloudy with Light Rain 74 23.3 73 22.8 97 97 ENE 8 13 30.01 1016 10 16.0934 0.03 0.762
3:14 pm 15:14 Cloudy with Light Rain 73 23 73 23 100 100 NE 7 11 30 1016 10 16.0934 0 0
3:48 pm 15:48 Cloudy 75 24 73 23 94 94 ENE 7 11 30 1016 10 16.0934 0 0
3:52 pm 15:52 Cloudy 75 23.9 73 22.8 94 94 NE 6 9 30.01 1016 10 16.0934 0.02 0.508
4:10 pm 16:10 Cloudy 75 24 72 22 89 89 ENE 7 11 30.03 1017 10 16.0934 0 0
4:19 pm 16:19 Cloudy 75 23.9 72 22.2 90 90 E 8 13 30.03 1017 10 16.0934 0 0
4:31 pm 16:31 Cloudy 75 23.9 72 22.2 90 90 E 6 9 30.03 1017 10 16.0934 0 0
4:36 pm 16:36 Cloudy 75 24 72 22 89 89 E 6 9 30.03 1017 10 16.0934 0 0
4:42 pm 16:42 Cloudy 75 24 72 22 89 89 ESE 8 13 30.03 1017 10 16.0934 0 0
4:52 pm 16:52 Cloudy 75 23.9 72 22.2 90 90 ESE 7 11 30.02 1017 10 16.0934 0 0
5:23 pm 17:23 Cloudy 75 23.9 71 21.7 88 88 E 5 7 30.03 1017 10 16.0934 0 0
5:25 pm 17:25 Cloudy 75 23.9 71 21.7 88 88 ENE 5 7 30.03 1017 10 16.0934 0 0
5:31 pm 17:31 Cloudy 75 23.9 71 21.7 88 88 E 6 9 30.03 1017 10 16.0934 0 0
5:52 pm 17:52 Cloudy 75 23.9 71 21.7 88 88 NE 8 13 30.02 1017 10 16.0934 0 0
5:55 pm 17:55 Cloudy 74 23.3 71 21.7 91 91 ENE 6 9 30.03 1017 10 16.0934 0 0
5:59 pm 17:59 Cloudy 74 23.3 71 21.7 91 91 ENE 3 6 30.03 1017 10 16.0934 0 0
6:52 pm 18:52 Cloudy 74 23.3 71 21.7 91 91 E 7 11 30.04 1017 10 16.0934 0 0
6:55 pm 18:55 Cloudy 74 23.3 71 21.7 91 91 ENE 7 11 30.03 1017 10 16.0934 0 0
7:30 pm 19:30 Cloudy 73 23 72 22 94 94 E 5 7 30.06 1018 10 16.0934 0 0
7:52 pm 19:52 Mostly Cloudy 74 23.3 71 21.7 91 91 E 6 9 30.05 1018 10 16.0934 0 0
8:52 pm 20:52 Mostly Cloudy 73 22.8 71 21.7 94 94 ENE 7 11 30.05 1018 10 16.0934 0 0
9:52 pm 21:52 Mostly Cloudy 73 22.8 71 21.7 94 94 NE 7 11 30.06 1018 10 16.0934 0 0
10:11 pm 22:11 Partly Cloudy 73 22.8 71 21.7 94 94 NNE 7 11 30.06 1018 10 16.0934 0 0
10:52 pm 22:52 Cloudy 73 22.8 71 21.7 94 94 NNE 8 13 30.06 1018 10 16.0934 0 0
11:52 pm 23:52 Cloudy 73 22.8 71 21.7 94 94 NE 7 11 30.07 1018 10 16.0934 0 0

Powered by AerisWeather